Overview Statistics Trail Chart Weather Telemetry Raw packets
 

This is the latest recevied weather packets stored in our database for station/object DH2PG-6. If no packets are shown the sender has not sent any weather packets the latest 10 day(s).

<< 49 50 51 52 53 54 55 >>
Time Temp. Humidity Pressure Rain* Wind** Luminosity Snow
1788261087 18.89° C 61% 1018.4 hPa 0 mm - - -
1788260787 19.44° C 62% 1018.5 hPa 0 mm - - -
1788260486 19.44° C 62% 1018.4 hPa 0 mm - - -
1788260186 19.44° C 62% 1018.4 hPa 0 mm - - -
1788259886 18.89° C 62% 1018.4 hPa 0 mm - - -
1788259585 19.44° C 61% 1018.3 hPa 0 mm - - -
1788259285 20° C 63% 1018.2 hPa 0 mm - - -
1788258985 20° C 64% 1018.2 hPa 0 mm - - -
1788258384 19.44° C 69% 1018.2 hPa 0 mm - - -
1788258084 18.89° C 69% 1018.2 hPa 0 mm - - -
1788257784 18.89° C 72% 1018.3 hPa 0 mm - - -
1788257183 18.33° C 75% 1018.4 hPa 0 mm - - -
1788256883 17.78° C 75% 1018.5 hPa 0 mm - - -
1788256583 17.78° C 76% 1018.4 hPa 0 mm - - -
1788255982 17.78° C 76% 1018.6 hPa 0 mm - - -
1788255682 17.78° C 78% 1018.5 hPa 0 mm - - -
1788255381 17.78° C 81% 1018.5 hPa 0 mm - - -
1788255081 17.22° C 81% 1018.5 hPa 0 mm - - -
1788254781 16.67° C 82% 1018.5 hPa 0 mm - - -
1788254481 16.67° C 82% 1018.5 hPa 0 mm - - -
1788254180 16.67° C 82% 1018.5 hPa 0 mm - - -
1788253880 16.11° C 82% 1018.5 hPa 0 mm - - -
1788253580 16.11° C 81% 1018.4 hPa 0 mm - - -
1788252979 16.67° C 81% 1018.4 hPa 0 mm - - -
1788252679 16.67° C 82% 1018.4 hPa 0 mm - - -

* Rain latest hour (hover to see other rain measurements)
** Current wind speed in m/s (hover to see current wind gust speed)